TimeCET,TemperatureF,Dew PointF,Humidity,Sea Level PressureIn,VisibilityMPH,Wind Direction,Wind SpeedMPH,Gust SpeedMPH,PrecipitationIn,Events,Conditions,WindDirDegrees,DateUTC
12:00 AM,41.0,41.0,100,29.95,1.2,SE,6.9,-,N/A,,Overcast,140,2012-11-17 23:00:00
1:00 AM,41.0,41.0,100,29.95,0.9,SE,8.1,-,N/A,,Overcast,140,2012-11-18 00:00:00
2:00 AM,41.0,41.0,100,29.95,1.6,SE,6.9,-,N/A,,Overcast,140,2012-11-18 01:00:00
3:00 AM,41.0,41.0,100,29.95,1.6,SE,8.1,-,N/A,,Overcast,130,2012-11-18 02:00:00
4:00 AM,41.0,39.2,93,29.95,0.7,SE,5.8,-,N/A,,Overcast,140,2012-11-18 03:00:00
5:00 AM,39.2,39.2,100,29.95,0.7,SE,6.9,-,N/A,,Overcast,140,2012-11-18 04:00:00
6:00 AM,39.2,37.4,93,29.95,0.7,SSE,6.9,-,N/A,,Overcast,150,2012-11-18 05:00:00
7:00 AM,39.2,37.4,93,29.95,1.6,SSE,6.9,-,N/A,,Overcast,150,2012-11-18 06:00:00
8:00 AM,37.4,35.6,93,29.95,1.9,SSE,8.1,-,N/A,,Overcast,160,2012-11-18 07:00:00
9:00 AM,35.6,35.6,100,29.98,1.2,SSE,9.2,-,N/A,,Overcast,160,2012-11-18 08:00:00
9:18 AM,35.6,35.6,100,29.98,0.7,SSE,6.9,-,N/A,,Overcast,150,2012-11-18 08:18:00
9:25 AM,35.6,35.6,100,29.98,0.4,SSE,6.9,-,N/A,Fog,Fog,150,2012-11-18 08:25:00
10:00 AM,33.8,33.8,100,29.98,0.1,South,5.8,-,N/A,Fog,Fog,170,2012-11-18 09:00:00
11:00 AM,33.8,33.8,100,29.98,0.1,South,5.8,-,N/A,Fog,Fog,190,2012-11-18 10:00:00
12:00 PM,35.6,33.8,93,29.98,0.1,South,4.6,-,N/A,Fog,Fog,190,2012-11-18 11:00:00
1:00 PM,35.6,35.6,100,29.98,0.4,South,3.5,-,N/A,Fog,Fog,180,2012-11-18 12:00:00
2:00 PM,35.6,35.6,100,29.98,0.4,SSE,4.6,-,N/A,Fog,Fog,160,2012-11-18 13:00:00
3:00 PM,35.6,35.6,100,29.98,0.4,SSW,3.5,-,N/A,Fog,Fog,200,2012-11-18 14:00:00
4:00 PM,37.4,35.6,93,29.98,0.4,Variable,2.3,-,N/A,Fog,Fog,0,2012-11-18 15:00:00
5:00 PM,37.4,37.4,100,30.01,0.7,Variable,2.3,-,N/A,,Overcast,0,2012-11-18 16:00:00
6:00 PM,37.4,35.6,93,30.01,0.4,SSW,3.5,-,N/A,Fog,Fog,210,2012-11-18 17:00:00
7:00 PM,37.4,35.6,93,30.01,0.4,SSW,3.5,-,N/A,Fog,Fog,200,2012-11-18 18:00:00
8:00 PM,37.4,35.6,93,30.04,0.4,Variable,1.2,-,N/A,Fog,Fog,0,2012-11-18 19:00:00
9:00 PM,37.4,37.4,100,30.04,0.4,Variable,1.2,-,N/A,Fog,Fog,0,2012-11-18 20:00:00
9:22 PM,37.4,37.4,100,30.04,0.9,Variable,1.2,-,N/A,,Overcast,0,2012-11-18 20:22:00
10:00 PM,37.4,37.4,100,30.04,0.9,SSW,3.5,-,N/A,,Overcast,200,2012-11-18 21:00:00
11:00 PM,37.4,35.6,93,30.04,0.7,SW,3.5,-,N/A,,Overcast,230,2012-11-18 22:00:00